﻿_id,日時,10分間移動積算雨量(mm),1時間移動積算雨量(mm),日雨量(mm),累計雨量(mm)
1,2023-10-09T00:00:00,0.5,2,7.5,7.5
2,2023-10-09T00:01:00,0.5,2,0,7.5
3,2023-10-09T00:02:00,0.5,2,0,7.5
4,2023-10-09T00:03:00,0.5,2,0,7.5
5,2023-10-09T00:04:00,0,2,0,7.5
6,2023-10-09T00:05:00,0,2,0,7.5
7,2023-10-09T00:06:00,0,2,0,7.5
8,2023-10-09T00:07:00,0,1.5,0,7.5
9,2023-10-09T00:08:00,0,1.5,0,7.5
10,2023-10-09T00:09:00,0,1.5,0,7.5
11,2023-10-09T00:10:00,0,1.5,0,7.5
12,2023-10-09T00:11:00,0,1.5,0,7.5
13,2023-10-09T00:12:00,0,1.5,0,7.5
14,2023-10-09T00:13:00,0,1.5,0,7.5
15,2023-10-09T00:14:00,0,1.5,0,7.5
16,2023-10-09T00:15:00,0,1.5,0,7.5
17,2023-10-09T00:16:00,0,1.5,0,7.5
18,2023-10-09T00:17:00,0,1.5,0,7.5
19,2023-10-09T00:18:00,0.5,2,0.5,8
20,2023-10-09T00:19:00,0.5,2,0.5,8
21,2023-10-09T00:20:00,0.5,2,0.5,8
22,2023-10-09T00:21:00,0.5,2,0.5,8
23,2023-10-09T00:22:00,0.5,2,0.5,8
24,2023-10-09T00:23:00,0.5,2,0.5,8
25,2023-10-09T00:24:00,0.5,2,0.5,8
26,2023-10-09T00:25:00,0.5,2,0.5,8
27,2023-10-09T00:26:00,0.5,2,0.5,8
28,2023-10-09T00:27:00,0.5,2,0.5,8
29,2023-10-09T00:28:00,0,2,0.5,8
30,2023-10-09T00:29:00,0.5,2,1,8.5
31,2023-10-09T00:30:00,0.5,2,1,8.5
32,2023-10-09T00:31:00,0.5,2,1,8.5
33,2023-10-09T00:32:00,0.5,2,1,8.5
34,2023-10-09T00:33:00,0.5,2,1,8.5
35,2023-10-09T00:34:00,0.5,2,1,8.5
36,2023-10-09T00:35:00,1,2.5,1.5,9
37,2023-10-09T00:36:00,1,2.5,1.5,9
38,2023-10-09T00:37:00,1,2.5,1.5,9
39,2023-10-09T00:38:00,1,2.5,1.5,9
40,2023-10-09T00:39:00,0.5,2.5,1.5,9
41,2023-10-09T00:40:00,0.5,2.5,1.5,9
42,2023-10-09T00:41:00,0.5,2.5,1.5,9
43,2023-10-09T00:42:00,0.5,2,1.5,9
44,2023-10-09T00:43:00,0.5,2,1.5,9
45,2023-10-09T00:44:00,0.5,2,1.5,9
46,2023-10-09T00:45:00,0,2,1.5,9
47,2023-10-09T00:46:00,0,2,1.5,9
48,2023-10-09T00:47:00,0,2,1.5,9
49,2023-10-09T00:48:00,0,2,1.5,9
50,2023-10-09T00:49:00,0,2,1.5,9
51,2023-10-09T00:50:00,0,2,1.5,9
52,2023-10-09T00:51:00,0,2,1.5,9
53,2023-10-09T00:52:00,0,2,1.5,9
54,2023-10-09T00:53:00,0.5,2.5,2,9.5
55,2023-10-09T00:54:00,0.5,2,2,9.5
56,2023-10-09T00:55:00,0.5,2,2,9.5
57,2023-10-09T00:56:00,0.5,2,2,9.5
58,2023-10-09T00:57:00,0.5,2,2,9.5
59,2023-10-09T00:58:00,0.5,2,2,9.5
60,2023-10-09T00:59:00,0.5,2,2,9.5
61,2023-10-09T01:00:00,0.5,2,2,9.5
62,2023-10-09T01:01:00,0.5,2,2,9.5
63,2023-10-09T01:02:00,0.5,2,2,9.5
64,2023-10-09T01:03:00,0,2,2,9.5
65,2023-10-09T01:04:00,0.5,2.5,2.5,10
66,2023-10-09T01:05:00,0.5,2.5,2.5,10
67,2023-10-09T01:06:00,0.5,2.5,2.5,10
68,2023-10-09T01:07:00,0.5,2.5,2.5,10
69,2023-10-09T01:08:00,0.5,2.5,2.5,10
70,2023-10-09T01:09:00,0.5,2.5,2.5,10
71,2023-10-09T01:10:00,0.5,2.5,2.5,10
72,2023-10-09T01:11:00,0.5,2.5,2.5,10
73,2023-10-09T01:12:00,0.5,2.5,2.5,10
74,2023-10-09T01:13:00,0.5,2.5,2.5,10
75,2023-10-09T01:14:00,0.5,3,3,10.5
76,2023-10-09T01:15:00,0.5,3,3,10.5
77,2023-10-09T01:16:00,0.5,3,3,10.5
78,2023-10-09T01:17:00,0.5,3,3,10.5
79,2023-10-09T01:18:00,0.5,2.5,3,10.5
80,2023-10-09T01:19:00,0.5,2.5,3,10.5
81,2023-10-09T01:20:00,0.5,2.5,3,10.5
82,2023-10-09T01:21:00,0.5,2.5,3,10.5
83,2023-10-09T01:22:00,0.5,2.5,3,10.5
84,2023-10-09T01:23:00,0.5,2.5,3,10.5
85,2023-10-09T01:24:00,0,2.5,3,10.5
86,2023-10-09T01:25:00,0,2.5,3,10.5
87,2023-10-09T01:26:00,0,2.5,3,10.5
88,2023-10-09T01:27:00,0,2.5,3,10.5
89,2023-10-09T01:28:00,0.5,3,3.5,11
90,2023-10-09T01:29:00,0.5,2.5,3.5,11
91,2023-10-09T01:30:00,0.5,2.5,3.5,11
92,2023-10-09T01:31:00,0.5,2.5,3.5,11
93,2023-10-09T01:32:00,0.5,2.5,3.5,11
94,2023-10-09T01:33:00,0.5,2.5,3.5,11
95,2023-10-09T01:34:00,0.5,2.5,3.5,11
96,2023-10-09T01:35:00,0.5,2,3.5,11
97,2023-10-09T01:36:00,0.5,2,3.5,11
98,2023-10-09T01:37:00,0.5,2,3.5,11
99,2023-10-09T01:38:00,0,2,3.5,11
100,2023-10-09T01:39:00,0,2,3.5,11
101,2023-10-09T01:40:00,0,2,3.5,11
102,2023-10-09T01:41:00,0,2,3.5,11
103,2023-10-09T01:42:00,0,2,3.5,11
104,2023-10-09T01:43:00,0,2,3.5,11
105,2023-10-09T01:44:00,0,2,3.5,11
106,2023-10-09T01:45:00,0,2,3.5,11
107,2023-10-09T01:46:00,0,2,3.5,11
108,2023-10-09T01:47:00,0.5,2.5,4,11.5
109,2023-10-09T01:48:00,0.5,2.5,4,11.5
110,2023-10-09T01:49:00,0.5,2.5,4,11.5
111,2023-10-09T01:50:00,0.5,2.5,4,11.5
112,2023-10-09T01:51:00,0.5,2.5,4,11.5
113,2023-10-09T01:52:00,0.5,2.5,4,11.5
114,2023-10-09T01:53:00,0.5,2,4,11.5
115,2023-10-09T01:54:00,0.5,2,4,11.5
116,2023-10-09T01:55:00,0.5,2,4,11.5
117,2023-10-09T01:56:00,0.5,2,4,11.5
118,2023-10-09T01:57:00,0.5,2.5,4.5,12
119,2023-10-09T01:58:00,0.5,2.5,4.5,12
120,2023-10-09T01:59:00,0.5,2.5,4.5,12
121,2023-10-09T02:00:00,0.5,2.5,4.5,12
122,2023-10-09T02:01:00,0.5,2.5,4.5,12
123,2023-10-09T02:02:00,0.5,2.5,4.5,12
124,2023-10-09T02:03:00,0.5,2.5,4.5,12
125,2023-10-09T02:04:00,0.5,2,4.5,12
126,2023-10-09T02:05:00,0.5,2,4.5,12
127,2023-10-09T02:06:00,0.5,2,4.5,12
128,2023-10-09T02:07:00,0.5,2.5,5,12.5
129,2023-10-09T02:08:00,0.5,2.5,5,12.5
130,2023-10-09T02:09:00,0.5,2.5,5,12.5
131,2023-10-09T02:10:00,0.5,2.5,5,12.5
132,2023-10-09T02:11:00,0.5,2.5,5,12.5
133,2023-10-09T02:12:00,0.5,2.5,5,12.5
134,2023-10-09T02:13:00,0.5,2.5,5,12.5
135,2023-10-09T02:14:00,0.5,2,5,12.5
136,2023-10-09T02:15:00,0.5,2,5,12.5
137,2023-10-09T02:16:00,0.5,2,5,12.5
138,2023-10-09T02:17:00,0,2,5,12.5
139,2023-10-09T02:18:00,0,2,5,12.5
140,2023-10-09T02:19:00,0,2,5,12.5
141,2023-10-09T02:20:00,0,2,5,12.5
142,2023-10-09T02:21:00,0,2,5,12.5
143,2023-10-09T02:22:00,0,2,5,12.5
144,2023-10-09T02:23:00,0,2,5,12.5
145,2023-10-09T02:24:00,0.5,2.5,5.5,13
146,2023-10-09T02:25:00,0.5,2.5,5.5,13
147,2023-10-09T02:26:00,0.5,2.5,5.5,13
148,2023-10-09T02:27:00,0.5,2.5,5.5,13
149,2023-10-09T02:28:00,0.5,2,5.5,13
150,2023-10-09T02:29:00,0.5,2,5.5,13
151,2023-10-09T02:30:00,0.5,2,5.5,13
152,2023-10-09T02:31:00,0.5,2,5.5,13
153,2023-10-09T02:32:00,0.5,2,5.5,13
154,2023-10-09T02:33:00,1,2.5,6,13.5
155,2023-10-09T02:34:00,0.5,2.5,6,13.5
156,2023-10-09T02:35:00,0.5,2.5,6,13.5
157,2023-10-09T02:36:00,1,3,6.5,14
158,2023-10-09T02:37:00,1,3,6.5,14
159,2023-10-09T02:38:00,1,3,6.5,14
160,2023-10-09T02:39:00,1,3,6.5,14
161,2023-10-09T02:40:00,1,3,6.5,14
162,2023-10-09T02:41:00,1,3,6.5,14
163,2023-10-09T02:42:00,1,3,6.5,14
164,2023-10-09T02:43:00,0.5,3,6.5,14
165,2023-10-09T02:44:00,0.5,3,6.5,14
166,2023-10-09T02:45:00,1,3.5,7,14.5
167,2023-10-09T02:46:00,0.5,3.5,7,14.5
168,2023-10-09T02:47:00,0.5,3,7,14.5
169,2023-10-09T02:48:00,0.5,3,7,14.5
170,2023-10-09T02:49:00,0.5,3,7,14.5
171,2023-10-09T02:50:00,1,3.5,7.5,15
172,2023-10-09T02:51:00,1,3.5,7.5,15
173,2023-10-09T02:52:00,1,3.5,7.5,15
174,2023-10-09T02:53:00,1,3.5,7.5,15
175,2023-10-09T02:54:00,1,3.5,7.5,15
176,2023-10-09T02:55:00,0.5,3.5,7.5,15
177,2023-10-09T02:56:00,0.5,3.5,7.5,15
178,2023-10-09T02:57:00,0.5,3,7.5,15
179,2023-10-09T02:58:00,0.5,3,7.5,15
180,2023-10-09T02:59:00,0.5,3,7.5,15
181,2023-10-09T03:00:00,0,3,7.5,15
182,2023-10-09T03:01:00,0,3,7.5,15
183,2023-10-09T03:02:00,0,3,7.5,15
184,2023-10-09T03:03:00,0,3,7.5,15
185,2023-10-09T03:04:00,0,3,7.5,15
186,2023-10-09T03:05:00,0,3,7.5,15
187,2023-10-09T03:06:00,0,3,7.5,15
188,2023-10-09T03:07:00,0,2.5,7.5,15
189,2023-10-09T03:08:00,0.5,3,8,15.5
190,2023-10-09T03:09:00,0.5,3,8,15.5
191,2023-10-09T03:10:00,0.5,3,8,15.5
192,2023-10-09T03:11:00,0.5,3,8,15.5
193,2023-10-09T03:12:00,0.5,3,8,15.5
194,2023-10-09T03:13:00,0.5,3,8,15.5
195,2023-10-09T03:14:00,0.5,3,8,15.5
196,2023-10-09T03:15:00,0.5,3,8,15.5
197,2023-10-09T03:16:00,0.5,3,8,15.5
198,2023-10-09T03:17:00,0.5,3,8,15.5
199,2023-10-09T03:18:00,0,3,8,15.5
200,2023-10-09T03:19:00,0,3,8,15.5
201,2023-10-09T03:20:00,0,3,8,15.5
202,2023-10-09T03:21:00,0,3,8,15.5
203,2023-10-09T03:22:00,0,3,8,15.5
204,2023-10-09T03:23:00,0,3,8,15.5
205,2023-10-09T03:24:00,0,2.5,8,15.5
206,2023-10-09T03:25:00,0,2.5,8,15.5
207,2023-10-09T03:26:00,0,2.5,8,15.5
208,2023-10-09T03:27:00,0,2.5,8,15.5
209,2023-10-09T03:28:00,0,2.5,8,15.5
210,2023-10-09T03:29:00,0.5,3,8.5,16
211,2023-10-09T03:30:00,0.5,3,8.5,16
212,2023-10-09T03:31:00,0.5,3,8.5,16
213,2023-10-09T03:32:00,0.5,3,8.5,16
214,2023-10-09T03:33:00,0.5,2.5,8.5,16
215,2023-10-09T03:34:00,0.5,2.5,8.5,16
216,2023-10-09T03:35:00,0.5,2.5,8.5,16
217,2023-10-09T03:36:00,0.5,2,8.5,16
218,2023-10-09T03:37:00,0.5,2,8.5,16
219,2023-10-09T03:38:00,0.5,2,8.5,16
220,2023-10-09T03:39:00,0,2,8.5,16
221,2023-10-09T03:40:00,0,2,8.5,16
222,2023-10-09T03:41:00,0,2,8.5,16
223,2023-10-09T03:42:00,0.5,2.5,9,16.5
224,2023-10-09T03:43:00,,,,
225,2023-10-09T03:44:00,0.5,2.5,9,16.5
226,2023-10-09T03:45:00,0.5,2,9,16.5
227,2023-10-09T03:46:00,0.5,2,9,16.5
228,2023-10-09T03:47:00,0.5,2,9,16.5
229,2023-10-09T03:48:00,0.5,2,9,16.5
230,2023-10-09T03:49:00,0.5,2,9,16.5
231,2023-10-09T03:50:00,0.5,1.5,9,16.5
232,2023-10-09T03:51:00,0.5,1.5,9,16.5
233,2023-10-09T03:52:00,0.5,2,9.5,17
234,2023-10-09T03:53:00,0.5,2,9.5,17
235,2023-10-09T03:54:00,0.5,2,9.5,17
236,2023-10-09T03:55:00,0.5,2,9.5,17
237,2023-10-09T03:56:00,0.5,2,9.5,17
238,2023-10-09T03:57:00,0.5,2,9.5,17
239,2023-10-09T03:58:00,0.5,2,9.5,17
240,2023-10-09T03:59:00,0.5,2,9.5,17
241,2023-10-09T04:00:00,0.5,2,9.5,17
242,2023-10-09T04:01:00,0.5,2,9.5,17
243,2023-10-09T04:02:00,0,2,9.5,17
244,2023-10-09T04:03:00,0,2,9.5,17
245,2023-10-09T04:04:00,0,2,9.5,17
246,2023-10-09T04:05:00,0,2,9.5,17
247,2023-10-09T04:06:00,0,2,9.5,17
248,2023-10-09T04:07:00,0,2,9.5,17
249,2023-10-09T04:08:00,0,1.5,9.5,17
250,2023-10-09T04:09:00,0,1.5,9.5,17
251,2023-10-09T04:10:00,0,1.5,9.5,17
252,2023-10-09T04:11:00,0,1.5,9.5,17
253,2023-10-09T04:12:00,0,1.5,9.5,17
254,2023-10-09T04:13:00,0,1.5,9.5,17
255,2023-10-09T04:14:00,0,1.5,9.5,17
256,2023-10-09T04:15:00,0,1.5,9.5,17
257,2023-10-09T04:16:00,0,1.5,9.5,17
258,2023-10-09T04:17:00,0,1.5,9.5,17
259,2023-10-09T04:18:00,0,1.5,9.5,17
260,2023-10-09T04:19:00,0.5,2,10,17.5
261,2023-10-09T04:20:00,0.5,2,10,17.5
262,2023-10-09T04:21:00,0.5,2,10,17.5
263,2023-10-09T04:22:00,0.5,2,10,17.5
264,2023-10-09T04:23:00,0.5,2,10,17.5
265,2023-10-09T04:24:00,0.5,2,10,17.5
266,2023-10-09T04:25:00,0.5,2,10,17.5
267,2023-10-09T04:26:00,0.5,2,10,17.5
268,2023-10-09T04:27:00,1,2.5,10.5,18
269,2023-10-09T04:28:00,1,2.5,10.5,18
270,2023-10-09T04:29:00,0.5,2,10.5,18
271,2023-10-09T04:30:00,0.5,2,10.5,18
272,2023-10-09T04:31:00,0.5,2,10.5,18
273,2023-10-09T04:32:00,0.5,2,10.5,18
274,2023-10-09T04:33:00,0.5,2,10.5,18
275,2023-10-09T04:34:00,0.5,2,10.5,18
276,2023-10-09T04:35:00,0.5,2,10.5,18
277,2023-10-09T04:36:00,0.5,2,10.5,18
278,2023-10-09T04:37:00,0,2,10.5,18
279,2023-10-09T04:38:00,0,2,10.5,18
280,2023-10-09T04:39:00,0,2,10.5,18
281,2023-10-09T04:40:00,0,2,10.5,18
282,2023-10-09T04:41:00,0,2,10.5,18
283,2023-10-09T04:42:00,0,1.5,10.5,18
284,2023-10-09T04:43:00,0,1.5,10.5,18
285,2023-10-09T04:44:00,0,1.5,10.5,18
286,2023-10-09T04:45:00,0,1.5,10.5,18
287,2023-10-09T04:46:00,0,1.5,10.5,18
288,2023-10-09T04:47:00,0,1.5,10.5,18
289,2023-10-09T04:48:00,0,1.5,10.5,18
290,2023-10-09T04:49:00,0,1.5,10.5,18
291,2023-10-09T04:50:00,0.5,2,11,18.5
292,2023-10-09T04:51:00,0.5,2,11,18.5
293,2023-10-09T04:52:00,0.5,1.5,11,18.5
294,2023-10-09T04:53:00,0.5,1.5,11,18.5
295,2023-10-09T04:54:00,0.5,1.5,11,18.5
296,2023-10-09T04:55:00,0.5,1.5,11,18.5
297,2023-10-09T04:56:00,0.5,1.5,11,18.5
298,2023-10-09T04:57:00,0.5,1.5,11,18.5
299,2023-10-09T04:58:00,0.5,1.5,11,18.5
300,2023-10-09T04:59:00,0.5,1.5,11,18.5
301,2023-10-09T05:00:00,0,1.5,11,18.5
302,2023-10-09T05:01:00,0,1.5,11,18.5
303,2023-10-09T05:02:00,0,1.5,11,18.5
304,2023-10-09T05:03:00,0,1.5,11,18.5
305,2023-10-09T05:04:00,0,1.5,11,18.5
306,2023-10-09T05:05:00,0,1.5,11,18.5
307,2023-10-09T05:06:00,0,1.5,11,18.5
308,2023-10-09T05:07:00,0,1.5,11,18.5
309,2023-10-09T05:08:00,0,1.5,11,18.5
310,2023-10-09T05:09:00,0,1.5,11,18.5
311,2023-10-09T05:10:00,0,1.5,11,18.5
312,2023-10-09T05:11:00,0,1.5,11,18.5
313,2023-10-09T05:12:00,0.5,2,11.5,19
314,2023-10-09T05:13:00,0.5,2,11.5,19
315,2023-10-09T05:14:00,0.5,2,11.5,19
316,2023-10-09T05:15:00,0.5,2,11.5,19
317,2023-10-09T05:16:00,0.5,2,11.5,19
318,2023-10-09T05:17:00,0.5,2,11.5,19
319,2023-10-09T05:18:00,0.5,2,11.5,19
320,2023-10-09T05:19:00,0.5,1.5,11.5,19
321,2023-10-09T05:20:00,0.5,1.5,11.5,19
322,2023-10-09T05:21:00,0.5,1.5,11.5,19
323,2023-10-09T05:22:00,0,1.5,11.5,19
324,2023-10-09T05:23:00,0,1.5,11.5,19
325,2023-10-09T05:24:00,0,1.5,11.5,19
326,2023-10-09T05:25:00,0.5,2,12,19.5
327,2023-10-09T05:26:00,0.5,2,12,19.5
328,2023-10-09T05:27:00,1,2,12.5,20
329,2023-10-09T05:28:00,1,2,12.5,20
330,2023-10-09T05:29:00,1,2,12.5,20
331,2023-10-09T05:30:00,1,2,12.5,20
332,2023-10-09T05:31:00,1,2,12.5,20
333,2023-10-09T05:32:00,1,2,12.5,20
334,2023-10-09T05:33:00,1,2,12.5,20
335,2023-10-09T05:34:00,1,2,12.5,20
336,2023-10-09T05:35:00,0.5,2,12.5,20
337,2023-10-09T05:36:00,1,2.5,13,20.5
338,2023-10-09T05:37:00,0.5,2.5,13,20.5
339,2023-10-09T05:38:00,0.5,2.5,13,20.5
340,2023-10-09T05:39:00,0.5,2.5,13,20.5
341,2023-10-09T05:40:00,1,3,13.5,21
342,2023-10-09T05:41:00,1,3,13.5,21
343,2023-10-09T05:42:00,1,3,13.5,21
344,2023-10-09T05:43:00,1,3,13.5,21
345,2023-10-09T05:44:00,1,3,13.5,21
346,2023-10-09T05:45:00,1,3,13.5,21
347,2023-10-09T05:46:00,1,3.5,14,21.5
348,2023-10-09T05:47:00,1,3.5,14,21.5
349,2023-10-09T05:48:00,1,3.5,14,21.5
350,2023-10-09T05:49:00,1,3.5,14,21.5
351,2023-10-09T05:50:00,0.5,3,14,21.5
352,2023-10-09T05:51:00,0.5,3,14,21.5
353,2023-10-09T05:52:00,0.5,3,14,21.5
354,2023-10-09T05:53:00,0.5,3,14,21.5
355,2023-10-09T05:54:00,0.5,3,14,21.5
356,2023-10-09T05:55:00,0.5,3,14,21.5
357,2023-10-09T05:56:00,0,3,14,21.5
358,2023-10-09T05:57:00,0,3,14,21.5
359,2023-10-09T05:58:00,0,3,14,21.5
360,2023-10-09T05:59:00,0,3,14,21.5
361,2023-10-09T06:00:00,0,3,14,21.5
362,2023-10-09T06:01:00,0,3,14,21.5
363,2023-10-09T06:02:00,0,3,14,21.5
364,2023-10-09T06:03:00,0,3,14,21.5
365,2023-10-09T06:04:00,0.5,3.5,14.5,22
366,2023-10-09T06:05:00,0.5,3.5,14.5,22
367,2023-10-09T06:06:00,0.5,3.5,14.5,22
368,2023-10-09T06:07:00,0.5,3.5,14.5,22
369,2023-10-09T06:08:00,0.5,3.5,14.5,22
370,2023-10-09T06:09:00,0.5,3.5,14.5,22
371,2023-10-09T06:10:00,0.5,3.5,14.5,22
372,2023-10-09T06:11:00,0.5,3.5,14.5,22
373,2023-10-09T06:12:00,0.5,3,14.5,22
374,2023-10-09T06:13:00,0.5,3,14.5,22
375,2023-10-09T06:14:00,0,3,14.5,22
376,2023-10-09T06:15:00,0,3,14.5,22
377,2023-10-09T06:16:00,0,3,14.5,22
378,2023-10-09T06:17:00,0,3,14.5,22
379,2023-10-09T06:18:00,0,3,14.5,22
380,2023-10-09T06:19:00,0,3,14.5,22
381,2023-10-09T06:20:00,0,3,14.5,22
382,2023-10-09T06:21:00,0,3,14.5,22
383,2023-10-09T06:22:00,0,3,14.5,22
384,2023-10-09T06:23:00,0,3,14.5,22
385,2023-10-09T06:24:00,0,3,14.5,22
386,2023-10-09T06:25:00,0,2.5,14.5,22
387,2023-10-09T06:26:00,0,2.5,14.5,22
388,2023-10-09T06:27:00,0,2,14.5,22
389,2023-10-09T06:28:00,0,2,14.5,22
390,2023-10-09T06:29:00,0,2,14.5,22
391,2023-10-09T06:30:00,0,2,14.5,22
392,2023-10-09T06:31:00,0,2,14.5,22
393,2023-10-09T06:32:00,0,2,14.5,22
394,2023-10-09T06:33:00,0,2,14.5,22
395,2023-10-09T06:34:00,0,2,14.5,22
396,2023-10-09T06:35:00,0,2,14.5,22
397,2023-10-09T06:36:00,0,1.5,14.5,22
398,2023-10-09T06:37:00,0,1.5,14.5,22
399,2023-10-09T06:38:00,0,1.5,14.5,22
400,2023-10-09T06:39:00,0,1.5,14.5,22
401,2023-10-09T06:40:00,0,1,14.5,22
402,2023-10-09T06:41:00,0,1,14.5,22
403,2023-10-09T06:42:00,0,1,14.5,22
404,2023-10-09T06:43:00,0,1,14.5,22
405,2023-10-09T06:44:00,0,1,14.5,22
406,2023-10-09T06:45:00,0,1,14.5,22
407,2023-10-09T06:46:00,0,0.5,14.5,22
408,2023-10-09T06:47:00,0,0.5,14.5,22
409,2023-10-09T06:48:00,0,0.5,14.5,22
410,2023-10-09T06:49:00,0,0.5,14.5,22
411,2023-10-09T06:50:00,0,0.5,14.5,22
412,2023-10-09T06:51:00,0,0.5,14.5,22
413,2023-10-09T06:52:00,0,0.5,14.5,22
414,2023-10-09T06:53:00,0,0.5,14.5,22
415,2023-10-09T06:54:00,0,0.5,14.5,22
416,2023-10-09T06:55:00,0,0.5,14.5,22
417,2023-10-09T06:56:00,0,0.5,14.5,22
418,2023-10-09T06:57:00,0,0.5,14.5,22
419,2023-10-09T06:58:00,0,0.5,14.5,22
420,2023-10-09T06:59:00,0,0.5,14.5,22
421,2023-10-09T07:00:00,0,0.5,14.5,22
422,2023-10-09T07:01:00,0,0.5,14.5,22
423,2023-10-09T07:02:00,0,0.5,14.5,22
424,2023-10-09T07:03:00,0,0.5,14.5,22
425,2023-10-09T07:04:00,0,0,14.5,22
426,2023-10-09T07:05:00,0,0,14.5,22
427,2023-10-09T07:06:00,0,0,14.5,22
428,2023-10-09T07:07:00,0,0,14.5,22
429,2023-10-09T07:08:00,0,0,14.5,22
430,2023-10-09T07:09:00,0,0,14.5,22
431,2023-10-09T07:10:00,0,0,14.5,22
432,2023-10-09T07:11:00,0,0,14.5,22
433,2023-10-09T07:12:00,0,0,14.5,22
434,2023-10-09T07:13:00,0,0,14.5,22
435,2023-10-09T07:14:00,0,0,14.5,22
436,2023-10-09T07:15:00,0,0,14.5,22
437,2023-10-09T07:16:00,0,0,14.5,22
438,2023-10-09T07:17:00,0,0,14.5,22
439,2023-10-09T07:18:00,0.5,0.5,15,22.5
440,2023-10-09T07:19:00,0.5,0.5,15,22.5
441,2023-10-09T07:20:00,0.5,0.5,15,22.5
442,2023-10-09T07:21:00,0.5,0.5,15,22.5
443,2023-10-09T07:22:00,0.5,0.5,15,22.5
444,2023-10-09T07:23:00,0.5,0.5,15,22.5
445,2023-10-09T07:24:00,0.5,0.5,15,22.5
446,2023-10-09T07:25:00,0.5,0.5,15,22.5
447,2023-10-09T07:26:00,0.5,0.5,15,22.5
448,2023-10-09T07:27:00,0.5,0.5,15,22.5
449,2023-10-09T07:28:00,0,0.5,15,22.5
450,2023-10-09T07:29:00,0,0.5,15,22.5
451,2023-10-09T07:30:00,0,0.5,15,22.5
452,2023-10-09T07:31:00,0,0.5,15,22.5
453,2023-10-09T07:32:00,0,0.5,15,22.5
454,2023-10-09T07:33:00,0,0.5,15,22.5
455,2023-10-09T07:34:00,0,0.5,15,22.5
456,2023-10-09T07:35:00,0,0.5,15,22.5
457,2023-10-09T07:36:00,0,0.5,15,22.5
458,2023-10-09T07:37:00,0,0.5,15,22.5
459,2023-10-09T07:38:00,0,0.5,15,22.5
460,2023-10-09T07:39:00,0,0.5,15,22.5
461,2023-10-09T07:40:00,0,0.5,15,22.5
462,2023-10-09T07:41:00,0,0.5,15,22.5
463,2023-10-09T07:42:00,0,0.5,15,22.5
464,2023-10-09T07:43:00,0,0.5,15,22.5
465,2023-10-09T07:44:00,0,0.5,15,22.5
466,2023-10-09T07:45:00,0,0.5,15,22.5
467,2023-10-09T07:46:00,0,0.5,15,22.5
468,2023-10-09T07:47:00,0,0.5,15,22.5
469,2023-10-09T07:48:00,0,0.5,15,22.5
470,2023-10-09T07:49:00,0,0.5,15,22.5
471,2023-10-09T07:50:00,0,0.5,15,22.5
472,2023-10-09T07:51:00,0,0.5,15,22.5
473,2023-10-09T07:52:00,0,0.5,15,22.5
474,2023-10-09T07:53:00,0,0.5,15,22.5
475,2023-10-09T07:54:00,0,0.5,15,22.5
476,2023-10-09T07:55:00,0,0.5,15,22.5
477,2023-10-09T07:56:00,0,0.5,15,22.5
478,2023-10-09T07:57:00,0,0.5,15,22.5
479,2023-10-09T07:58:00,0,0.5,15,22.5
480,2023-10-09T07:59:00,0,0.5,15,22.5
481,2023-10-09T08:00:00,0,0.5,15,22.5
482,2023-10-09T08:01:00,0,0.5,15,22.5
483,2023-10-09T08:02:00,0,0.5,15,22.5
484,2023-10-09T08:03:00,0,0.5,15,22.5
485,2023-10-09T08:04:00,0,0.5,15,22.5
486,2023-10-09T08:05:00,0,0.5,15,22.5
487,2023-10-09T08:06:00,0,0.5,15,22.5
488,2023-10-09T08:07:00,0,0.5,15,22.5
489,2023-10-09T08:08:00,0,0.5,15,22.5
490,2023-10-09T08:09:00,0,0.5,15,22.5
491,2023-10-09T08:10:00,0,0.5,15,22.5
492,2023-10-09T08:11:00,0,0.5,15,22.5
493,2023-10-09T08:12:00,0,0.5,15,22.5
494,2023-10-09T08:13:00,0,0.5,15,22.5
495,2023-10-09T08:14:00,0,0.5,15,22.5
496,2023-10-09T08:15:00,0,0.5,15,22.5
497,2023-10-09T08:16:00,0,0.5,15,22.5
498,2023-10-09T08:17:00,0,0.5,15,22.5
499,2023-10-09T08:18:00,0,0,15,22.5
500,2023-10-09T08:19:00,0,0,15,22.5
501,2023-10-09T08:20:00,0,0,15,22.5
502,2023-10-09T08:21:00,0,0,15,22.5
503,2023-10-09T08:22:00,0,0,15,22.5
504,2023-10-09T08:23:00,0,0,15,22.5
505,2023-10-09T08:24:00,0,0,15,22.5
506,2023-10-09T08:25:00,0,0,15,22.5
507,2023-10-09T08:26:00,0,0,15,22.5
508,2023-10-09T08:27:00,0,0,15,22.5
509,2023-10-09T08:28:00,0,0,15,22.5
510,2023-10-09T08:29:00,0,0,15,22.5
511,2023-10-09T08:30:00,0,0,15,22.5
512,2023-10-09T08:31:00,0,0,15,22.5
513,2023-10-09T08:32:00,0,0,15,22.5
514,2023-10-09T08:33:00,0,0,15,22.5
515,2023-10-09T08:34:00,0,0,15,22.5
516,2023-10-09T08:35:00,0,0,15,22.5
517,2023-10-09T08:36:00,0,0,15,22.5
518,2023-10-09T08:37:00,0,0,15,22.5
519,2023-10-09T08:38:00,0,0,15,22.5
520,2023-10-09T08:39:00,0,0,15,22.5
521,2023-10-09T08:40:00,0,0,15,22.5
522,2023-10-09T08:41:00,0,0,15,22.5
523,2023-10-09T08:42:00,0,0,15,22.5
524,2023-10-09T08:43:00,0,0,15,22.5
525,2023-10-09T08:44:00,0,0,15,22.5
526,2023-10-09T08:45:00,0,0,15,22.5
527,2023-10-09T08:46:00,0,0,15,22.5
528,2023-10-09T08:47:00,0,0,15,22.5
529,2023-10-09T08:48:00,0,0,15,22.5
530,2023-10-09T08:49:00,0,0,15,22.5
531,2023-10-09T08:50:00,0,0,15,22.5
532,2023-10-09T08:51:00,0,0,15,22.5
533,2023-10-09T08:52:00,0,0,15,22.5
534,2023-10-09T08:53:00,0,0,15,22.5
535,2023-10-09T08:54:00,0,0,15,22.5
536,2023-10-09T08:55:00,0,0,15,22.5
537,2023-10-09T08:56:00,0,0,15,22.5
538,2023-10-09T08:57:00,0,0,15,22.5
539,2023-10-09T08:58:00,0,0,15,22.5
540,2023-10-09T08:59:00,0,0,15,22.5
541,2023-10-09T09:00:00,0,0,15,22.5
542,2023-10-09T09:01:00,0,0,15,22.5
543,2023-10-09T09:02:00,0,0,15,22.5
544,2023-10-09T09:03:00,0,0,15,22.5
545,2023-10-09T09:04:00,0,0,15,22.5
546,2023-10-09T09:05:00,0,0,15,22.5
547,2023-10-09T09:06:00,0,0,15,22.5
548,2023-10-09T09:07:00,0,0,15,22.5
549,2023-10-09T09:08:00,0,0,15,22.5
550,2023-10-09T09:09:00,0,0,15,22.5
551,2023-10-09T09:10:00,0,0,15,22.5
552,2023-10-09T09:11:00,0,0,15,22.5
553,2023-10-09T09:12:00,0,0,15,22.5
554,2023-10-09T09:13:00,0,0,15,22.5
555,2023-10-09T09:14:00,0,0,15,22.5
556,2023-10-09T09:15:00,0,0,15,22.5
557,2023-10-09T09:16:00,0,0,15,22.5
558,2023-10-09T09:17:00,0,0,15,22.5
559,2023-10-09T09:18:00,0,0,15,22.5
560,2023-10-09T09:19:00,0,0,15,22.5
561,2023-10-09T09:20:00,0,0,15,22.5
562,2023-10-09T09:21:00,0,0,15,22.5
563,2023-10-09T09:22:00,0,0,15,22.5
564,2023-10-09T09:23:00,0,0,15,22.5
565,2023-10-09T09:24:00,0,0,15,22.5
566,2023-10-09T09:25:00,0,0,15,22.5
567,2023-10-09T09:26:00,0,0,15,22.5
568,2023-10-09T09:27:00,0,0,15,22.5
569,2023-10-09T09:28:00,0,0,15,22.5
570,2023-10-09T09:29:00,0,0,15,22.5
571,2023-10-09T09:30:00,0,0,15,22.5
572,2023-10-09T09:31:00,0,0,15,22.5
573,2023-10-09T09:32:00,0,0,15,22.5
574,2023-10-09T09:33:00,0,0,15,22.5
575,2023-10-09T09:34:00,0,0,15,22.5
576,2023-10-09T09:35:00,0,0,15,22.5
577,2023-10-09T09:36:00,0,0,15,22.5
578,2023-10-09T09:37:00,0,0,15,22.5
579,2023-10-09T09:38:00,0,0,15,22.5
580,2023-10-09T09:39:00,0,0,15,22.5
581,2023-10-09T09:40:00,0,0,15,22.5
582,2023-10-09T09:41:00,0,0,15,22.5
583,2023-10-09T09:42:00,0,0,15,22.5
584,2023-10-09T09:43:00,0,0,15,22.5
585,2023-10-09T09:44:00,0,0,15,22.5
586,2023-10-09T09:45:00,0,0,15,22.5
587,2023-10-09T09:46:00,0,0,15,22.5
588,2023-10-09T09:47:00,0,0,15,22.5
589,2023-10-09T09:48:00,0,0,15,22.5
590,2023-10-09T09:49:00,0,0,15,22.5
591,2023-10-09T09:50:00,0,0,15,22.5
592,2023-10-09T09:51:00,0,0,15,22.5
593,2023-10-09T09:52:00,0,0,15,22.5
594,2023-10-09T09:53:00,0,0,15,22.5
595,2023-10-09T09:54:00,0,0,15,22.5
596,2023-10-09T09:55:00,0,0,15,22.5
597,2023-10-09T09:56:00,0,0,15,22.5
598,2023-10-09T09:57:00,0,0,15,22.5
599,2023-10-09T09:58:00,0,0,15,22.5
600,2023-10-09T09:59:00,0,0,15,22.5
601,2023-10-09T10:00:00,0,0,15,22.5
602,2023-10-09T10:01:00,0,0,15,22.5
603,2023-10-09T10:02:00,0,0,15,22.5
604,2023-10-09T10:03:00,0,0,15,22.5
605,2023-10-09T10:04:00,0,0,15,22.5
606,2023-10-09T10:05:00,0,0,15,22.5
607,2023-10-09T10:06:00,0,0,15,22.5
608,2023-10-09T10:07:00,0,0,15,22.5
609,2023-10-09T10:08:00,0,0,15,22.5
610,2023-10-09T10:09:00,0,0,15,22.5
611,2023-10-09T10:10:00,0,0,15,22.5
612,2023-10-09T10:11:00,0,0,15,22.5
613,2023-10-09T10:12:00,0,0,15,22.5
614,2023-10-09T10:13:00,0,0,15,22.5
615,2023-10-09T10:14:00,0,0,15,22.5
616,2023-10-09T10:15:00,0,0,15,22.5
617,2023-10-09T10:16:00,0,0,15,22.5
618,2023-10-09T10:17:00,0,0,15,22.5
619,2023-10-09T10:18:00,0,0,15,22.5
620,2023-10-09T10:19:00,0,0,15,22.5
621,2023-10-09T10:20:00,0,0,15,22.5
622,2023-10-09T10:21:00,0,0,15,22.5
623,2023-10-09T10:22:00,0,0,15,22.5
624,2023-10-09T10:23:00,0,0,15,22.5
625,2023-10-09T10:24:00,0,0,15,22.5
626,2023-10-09T10:25:00,0,0,15,22.5
627,2023-10-09T10:26:00,0,0,15,22.5
628,2023-10-09T10:27:00,0,0,15,22.5
629,2023-10-09T10:28:00,0,0,15,22.5
630,2023-10-09T10:29:00,0,0,15,22.5
631,2023-10-09T10:30:00,0,0,15,22.5
632,2023-10-09T10:31:00,0,0,15,22.5
633,2023-10-09T10:32:00,0,0,15,22.5
634,2023-10-09T10:33:00,0,0,15,22.5
635,2023-10-09T10:34:00,0,0,15,22.5
636,2023-10-09T10:35:00,0,0,15,22.5
637,2023-10-09T10:36:00,0,0,15,22.5
638,2023-10-09T10:37:00,0,0,15,22.5
639,2023-10-09T10:38:00,0,0,15,22.5
640,2023-10-09T10:39:00,0,0,15,22.5
641,2023-10-09T10:40:00,0,0,15,22.5
642,2023-10-09T10:41:00,0,0,15,22.5
643,2023-10-09T10:42:00,0,0,15,22.5
644,2023-10-09T10:43:00,0,0,15,22.5
645,2023-10-09T10:44:00,0,0,15,22.5
646,2023-10-09T10:45:00,0,0,15,22.5
647,2023-10-09T10:46:00,0,0,15,22.5
648,2023-10-09T10:47:00,0,0,15,22.5
649,2023-10-09T10:48:00,0,0,15,22.5
650,2023-10-09T10:49:00,0,0,15,22.5
651,2023-10-09T10:50:00,0,0,15,22.5